SCP
-0 -0 -0 -0 -0 -0 -0 -0 -0 -0 -0 -0 -0 -0 -0 -0 -0 -0 -0 -0 -0 -0 -0 -0 -0 -0 -0
-0 -0 -0 -0 -0 -0 -0 -0 -0 -0 -0 -0 -0 -0 -0 -0 -0 -0 -0 -0 -0 -0 -0 -0 -0 -0 -0
-0 -0 -0 -0 -0 -0 -0 -0 -0 -0 -0 -0 -0 -0 -0 -0 -0 -0 -0 -0 -0 -0 -0 -0 0 0 0
-0 -0 -0 -0 -0 -0 -0 -0 0 -0 -0 -0 -0 -0 -0 -0 -0 -0 -0 -0 0 0 0 0 0 0 0
0 0 0 0 0 0 -0 -0 0 0 0 0 0 0 0 0 0 0 0 0 0 0 0 0 0 0 0
0 0 0 0 0 0 0 -0 0 0 0 0 0 0 0 0 0 0 0 0 0 0 0 0 0 0 0
0 0 0 0 0 0 0 0 0 0 0 0 0 0 0 0 0 0 0 0 0 0 0 0 0 0 0
0 0 0 0 0 0 0 0 0 0 0 0 0 0 0 0 0 0 0 0 0 0 0 0 0 0 0
0 0 0 0 0 0 0 0 0 0 0 0 0 0 0 0 0 0 0 0 0 0 0 0 0 0 0
0 0 0 0 0 0 0 0 0 0 0 0 0 0 0 0 0 0 0 0 0 0 0 0 0 0 0
0 0 0 0 0 0 0 0 0 0 0 0 0 0 0 0 0 0 0 0 0 0 0 0 0 0 0
0 0 0 0 0 0 0 0 0 0 0 0 0 0 0 0 0 0 0 0 0 0 0 0 0 0 0
0 0 0 0 0 0 0 0 0 0 0 0 0 0 0 0 0 0 0 0 0 0 0 0 0 0 0
0 0 0 0 0 0 0 0 0 0 0 0 0 0 0 0 0 0 0 0 0 0 0 0 0 0 0
0 0 0 0 0 0 0 0 0 0 0 0 0 0 0 0 0 0 0 0 0 0 0 0 0 0 0
0 0 0 0 0 0 0 0 0 0 0 0 0 0 0 0 0 0 0 0 0 0 0 0 0 0 0
Wind_Speed_500mb
26 22 19 17 16 16 15 16 14 15 19 23 28 30 29 29 29 27 26 26 27 29 30 30 31 34 38
31 26 23 20 19 20 17 14 12 13 16 19 23 25 27 29 29 29 28 28 28 30 31 30 30 33 38
34 31 27 24 21 20 19 17 14 12 14 16 18 18 16 19 23 26 27 28 29 31 30 29 28 35 39
38 35 31 28 26 24 23 21 19 15 13 16 15 9 7 8 12 17 21 23 23 27 28 25 30 34 38
42 38 35 32 30 28 26 26 22 18 17 16 15 14 8 3 2 8 14 16 17 20 20 22 24 27 34
46 44 40 37 34 34 32 33 30 27 23 23 22 20 17 11 7 6 11 11 13 15 16 17 20 26 30
46 48 49 44 41 38 37 35 34 34 32 27 30 27 25 21 14 14 12 12 14 14 13 14 22 27 27
52 51 53 52 50 44 43 42 40 39 37 38 34 35 32 30 25 20 16 19 19 17 13 24 24 26 26
56 55 56 56 57 56 52 49 46 45 43 44 40 41 37 47 34 27 22 24 22 20 22 28 27 27 26
58 57 59 61 62 65 63 60 60 54 50 52 47 46 39 48 38 27 23 27 28 24 29 32 30 29 27
60 60 61 63 66 65 70 65 68 64 63 57 53 48 44 54 41 30 29 31 36 33 37 37 35 32 28
64 63 63 65 67 69 70 68 67 62 60 64 58 59 55 62 46 42 36 39 41 40 45 42 38 33 27
71 69 68 69 68 71 72 67 63 65 66 66 66 67 61 58 63 47 43 46 51 51 53 46 38 32 27
74 72 69 68 68 69 71 65 65 62 65 66 66 67 61 67 67 48 54 58 60 61 56 44 28 28 31
75 76 75 70 68 69 73 68 68 67 66 70 67 68 69 63 68 60 64 67 70 72 65 30 18 17 36
79 82 78 75 75 74 76 72 67 64 64 65 70 75 68 80 69 62 65 73 75 76 75 62 27 25 20
Wind_Direction_500mb
187 182 177 167 162 159 148 136 117 99 96 89 85 90 96 99 99 99 99 99 99 96 93 90 90 91 86
194 193 190 188 179 174 176 160 150 127 116 105 92 88 91 90 90 91 92 93 93 92 92 92 92 91 82
201 200 198 196 196 191 190 187 176 163 150 136 111 92 78 85 91 92 93 92 94 95 95 95 93 86 94
206 206 205 205 205 205 208 203 196 189 180 171 149 125 107 62 91 97 97 99 103 103 102 97 88 92 99
205 205 209 210 212 212 215 211 203 209 210 209 198 191 191 164 80 130 120 117 115 111 108 101 101 106 102
208 205 212 215 218 221 218 219 213 206 217 222 219 220 208 206 221 238 174 154 139 129 119 113 117 121 116
219 218 214 213 216 223 227 231 227 219 227 221 229 223 215 213 219 222 215 197 168 158 139 130 130 127 123
230 229 221 217 217 218 224 229 230 226 225 228 230 227 221 216 199 207 241 214 180 180 157 146 143 138 134
232 233 230 225 222 222 222 223 226 229 230 234 236 234 224 235 202 201 234 218 196 179 166 157 154 145 138
234 234 234 233 230 228 223 222 224 228 232 234 234 234 231 218 202 203 237 218 199 192 178 166 160 154 154
235 236 236 236 235 234 228 226 227 227 227 232 232 234 239 209 204 210 235 226 208 197 183 172 166 165 165
237 237 236 236 234 234 228 230 223 222 224 228 229 231 233 214 218 217 231 219 210 206 184 175 173 173 171
237 237 236 236 234 231 229 228 224 221 223 228 226 226 228 239 212 215 227 223 206 203 186 176 175 178 180
240 242 241 242 239 232 228 229 221 220 224 225 226 229 227 223 207 223 228 215 210 204 192 176 173 189 196
240 239 239 239 237 230 225 225 219 217 221 226 228 226 229 232 221 237 226 223 213 202 199 184 175 199 196
241 241 241 242 240 235 230 228 221 218 219 216 233 224 231 226 223 237 235 222 220 215 203 204 203 204 178
Wind_Speed_850mb
26 22 19 17 16 16 15 16 14 15 19 23 28 30 29 29 29 27 26 26 27 29 30 30 31 34 38
31 26 23 20 19 20 17 14 12 13 16 19 23 25 27 29 29 29 28 28 28 30 31 30 30 33 38
34 31 27 24 21 20 19 17 14 12 14 16 18 18 16 19 23 26 27 28 29 31 30 29 28 35 39
38 35 31 28 26 24 23 21 19 15 13 16 15 9 7 8 12 17 21 23 23 27 28 25 30 34 38
42 38 35 32 30 28 26 26 22 18 17 16 15 14 8 3 2 8 14 16 17 20 20 22 24 27 34
46 44 40 37 34 34 32 33 30 27 23 23 22 20 17 11 7 6 11 11 13 15 16 17 20 26 30
46 48 49 44 41 38 37 35 34 34 32 27 30 27 25 21 14 14 12 12 14 14 13 14 22 27 27
52 51 53 52 50 44 43 42 40 39 37 38 34 35 32 30 25 20 16 19 19 17 13 24 24 26 26
56 55 56 56 57 56 52 49 46 45 43 44 40 41 37 47 34 27 22 24 22 20 22 28 27 27 26
58 57 59 61 62 65 63 60 60 54 50 52 47 46 39 48 38 27 23 27 28 24 29 32 30 29 27
60 60 61 63 66 65 70 65 68 64 63 57 53 48 44 54 41 30 29 31 36 33 37 37 35 32 28
64 63 63 65 67 69 70 68 67 62 60 64 58 59 55 62 46 42 36 39 41 40 45 42 38 33 27
71 69 68 69 68 71 72 67 63 65 66 66 66 67 61 58 63 47 43 46 51 51 53 46 38 32 27
74 72 69 68 68 69 71 65 65 62 65 66 66 67 61 67 67 48 54 58 60 61 56 44 28 28 31
75 76 75 70 68 69 73 68 68 67 66 70 67 68 69 63 68 60 64 67 70 72 65 30 18 17 36
79 82 78 75 75 74 76 72 67 64 64 65 70 75 68 80 69 62 65 73 75 76 75 62 27 25 20
Wind_Direction_850mb
187 182 177 167 162 159 148 136 117 99 96 89 85 90 96 99 99 99 99 99 99 96 93 90 90 91 86
194 193 190 188 179 174 176 160 150 127 116 105 92 88 91 90 90 91 92 93 93 92 92 92 92 91 82
201 200 198 196 196 191 190 187 176 163 150 136 111 92 78 85 91 92 93 92 94 95 95 95 93 86 94
206 206 205 205 205 205 208 203 196 189 180 171 149 125 107 62 91 97 97 99 103 103 102 97 88 92 99
205 205 209 210 212 212 215 211 203 209 210 209 198 191 191 164 80 130 120 117 115 111 108 101 101 106 102
208 205 212 215 218 221 218 219 213 206 217 222 219 220 208 206 221 238 174 154 139 129 119 113 117 121 116
219 218 214 213 216 223 227 231 227 219 227 221 229 223 215 213 219 222 215 197 168 158 139 130 130 127 123
230 229 221 217 217 218 224 229 230 226 225 228 230 227 221 216 199 207 241 214 180 180 157 146 143 138 134
232 233 230 225 222 222 222 223 226 229 230 234 236 234 224 235 202 201 234 218 196 179 166 157 154 145 138
234 234 234 233 230 228 223 222 224 228 232 234 234 234 231 218 202 203 237 218 199 192 178 166 160 154 154
235 236 236 236 235 234 228 226 227 227 227 232 232 234 239 209 204 210 235 226 208 197 183 172 166 165 165
237 237 236 236 234 234 228 230 223 222 224 228 229 231 233 214 218 217 231 219 210 206 184 175 173 173 171
237 237 236 236 234 231 229 228 224 221 223 228 226 226 228 239 212 215 227 223 206 203 186 176 175 178 180
240 242 241 242 239 232 228 229 221 220 224 225 226 229 227 223 207 223 228 215 210 204 192 176 173 189 196
240 239 239 239 237 230 225 225 219 217 221 226 228 226 229 232 221 237 226 223 213 202 199 184 175 199 196
241 241 241 242 240 235 230 228 221 218 219 216 233 224 231 226 223 237 235 222 220 215 203 204 203 204 178